Regional Weather Roundup
Issued by NWS Nashville, TN

Home | Current Version | Previous Version | Text Only | Print | Product List | Glossary On
Versions: 1 2 3 4 5 6 7 8 9 10 11 12 13 14 15 16 17 18 19 20 21 22 23 24 25 26 27 28 29 30 31 32 33 34 35 36 37 38 39 40 41 42 43 44 45 46 47 48
000
ASUS44 KOHX 040310
RWROHX
MIDDLE TENNESSEE HOURLY WEATHER ROUNDUP
NATIONAL WEATHER SERVICE NASHVILLE TN
1000 PM CDT THU SEP 03 2015

NOTE: "FAIR" INDICATES FEW OR NO CLOUDS BELOW 12,000 FEET WITH
NO SIGNIFICANT WEATHER AND/OR OBSTRUCTIONS TO VISIBILITY.

* THESE REPORTS ARE NOT UNDER NWS QUALITY CONTROL AND MAY NOT
  REPORT WEATHER SUCH AS PRECIPITATION AND FOG.


TNZ005>011-023>034-057-059-062>066-078-080-040400
...NORTHERN MIDDLE TENNESSEE...

CITY           SKY/WX    TMP DP  RH WIND       PRES   REMARKS
CLARKSVILLE    CLEAR     73  68  84 CALM      29.98R
CROSSVILLE     CLEAR     70  66  87 CALM      30.06R
DICKSON        CLEAR     72  70  94 CALM      29.99R
LIVINGSTON     CLEAR     76  67  73 CALM      30.03
NASHVILLE      PTCLDY    80  66  62 CALM      29.99R
SMYRNA         PTCLDY    77  69  76 CALM      29.99R
$$
TNZ056-058-060-061-075>077-079-093>097-040400
...SOUTHERN MIDDLE TENNESSEE...

CITY           SKY/WX    TMP DP  RH WIND       PRES   REMARKS
COLUMBIA       CLEAR     75  75 100 CALM      29.98R
LEWISBURG      MOCLDY    75  71  87 CALM      29.98R
MCMINNVILLE    CLEAR     73  73 100 CALM      30.01R
SHELBYVILLE    CLEAR     77  73  88 CALM      30.00R
TULLAHOMA      PTCLDY    73  70  88 CALM      30.02R
WINCHESTER     CLEAR     73  70  88 CALM      30.01R
$$


...KEY TO REMARKS...
VSB - VISIBILITY IN MILES
WCI - WIND CHILL INDEX
HX  - HEAT INDEX




USA.gov is the U.S. government's official web portal to all federal, state and local government web resources and services.